| time (UTC) | temp F | wind direction | speed MPH | gust MPH | rain 1hr in | rain 24hr in | rain mn in | humidity % | barometer mb |
| 20260503001512 | 75 | 166 | 0.0 | 2.0 | 0.00 | 0.00 | 0.00 | 44 | 1017.8 |
| 20260503000011 | 75 | 225 | 0.0 | 3.0 | 0.00 | 0.00 | 0.00 | 42 | 1017.8 |
| 20260502234510 | 75 | 302 | 1.0 | 4.0 | 0.00 | 0.00 | 0.00 | 42 | 1017.8 |
| 20260502233010 | 75 | 300 | 2.0 | 4.0 | 0.00 | 0.00 | 0.00 | 42 | 1018.0 |
| 20260502231514 | 75 | 215 | 2.0 | 7.0 | 0.00 | 0.00 | 0.00 | 42 | 1018.0 |
| 20260502230008 | 75 | 243 | 1.0 | 7.0 | 0.00 | 0.00 | 0.00 | 43 | 1018.0 |
| 20260502224506 | 75 | 252 | 1.0 | 6.0 | 0.00 | 0.00 | 0.00 | 44 | 1018.1 |
| 20260502223005 | 75 | 294 | 2.0 | 7.0 | 0.00 | 0.00 | 0.00 | 45 | 1018.2 |
| 20260502221503 | 75 | 23 | 5.0 | 8.0 | 0.00 | 0.00 | 0.00 | 44 | 1018.3 |
| 20260502220001 | 74 | 355 | 2.0 | 8.0 | 0.00 | 0.00 | 0.00 | 46 | 1018.4 |
| 20260502214600 | 75 | 38 | 4.0 | 9.0 | 0.00 | 0.00 | 0.00 | 42 | 1018.5 |
| 20260502213059 | 74 | 280 | 0.0 | 8.0 | 0.00 | 0.00 | 0.00 | 43 | 1018.7 |
| 20260502211559 | 74 | 254 | 4.0 | 9.0 | 0.00 | 0.00 | 0.00 | 43 | 1018.9 |
| 20260502210105 | 74 | 301 | 6.0 | 10.0 | 0.00 | 0.00 | 0.00 | 43 | 1019.1 |
| 20260502204555 | 73 | 326 | 3.0 | 14.0 | 0.00 | 0.00 | 0.00 | 42 | 1019.3 |
| 20260502203053 | 74 | 227 | 4.0 | 8.0 | 0.00 | 0.00 | 0.00 | 45 | 1019.4 |
| 20260502201601 | 73 | 19 | 5.0 | 10.0 | 0.00 | 0.00 | 0.00 | 44 | 1019.7 |
| 20260502200051 | 73 | 5 | 5.0 | 9.0 | 0.00 | 0.00 | 0.00 | 45 | 1019.9 |
| 20260502194547 | 72 | 21 | 6.0 | 10.0 | 0.00 | 0.00 | 0.00 | 42 | 1020.0 |
| 20260502193045 | 72 | 308 | 3.0 | 8.0 | 0.00 | 0.00 | 0.00 | 44 | 1020.0 |
| 20260502191544 | 72 | 15 | 4.0 | 9.0 | 0.00 | 0.00 | 0.00 | 45 | 1020.1 |
| 20260502190049 | 72 | 334 | 3.0 | 11.0 | 0.00 | 0.00 | 0.00 | 46 | 1020.3 |
| 20260502184550 | 72 | 239 | 2.0 | 10.0 | 0.00 | 0.00 | 0.00 | 46 | 1020.5 |
| 20260502183042 | 71 | 325 | 3.0 | 9.0 | 0.00 | 0.00 | 0.00 | 48 | 1020.7 |
| 20260502181540 | 71 | 276 | 3.0 | 7.0 | 0.00 | 0.00 | 0.00 | 40 | 1020.9 |
| 20260502163029 | 67 | 296 | 2.0 | 8.0 | 0.00 | 0.00 | 0.00 | 53 | 1021.9 |
| 20260502161525 | 66 | 5 | 1.0 | 8.0 | 0.00 | 0.00 | 0.00 | 58 | 1021.8 |
| 20260502151511 | 63 | 345 | 3.0 | 8.0 | 0.00 | 0.00 | 0.00 | 73 | 1021.6 |
| 20260502123042 | 51 | 306 | 0.0 | 4.0 | 0.00 | 0.00 | 0.00 | 89 | 1020.7 |
| 20260502121539 | 51 | 298 | 0.0 | 4.0 | 0.00 | 0.00 | 0.00 | 89 | 1020.3 |
| 20260502114538 | 51 | 5 | 0.0 | 5.0 | 0.00 | 0.00 | 0.00 | 89 | 1019.7 |
| 20260502113033 | 51 | 5 | 1.0 | 4.0 | 0.00 | 0.00 | 0.00 | 89 | 1019.6 |
| 20260502111530 | 51 | 5 | 3.0 | 5.0 | 0.00 | 0.00 | 0.00 | 90 | 1019.2 |
| 20260502110028 | 51 | 13 | 0.0 | 2.0 | 0.00 | 0.00 | 0.00 | 89 | 1019.0 |
| 20260502104538 | 51 | 355 | 2.0 | 5.0 | 0.00 | 0.01 | 0.00 | 89 | 1018.8 |
| 20260502103026 | 51 | 168 | 2.0 | 5.0 | 0.00 | 0.01 | 0.00 | 88 | 1018.8 |
| 20260502101525 | 52 | 168 | 1.0 | 2.0 | 0.00 | 0.01 | 0.00 | 88 | 1018.8 |
| 20260502091522 | 53 | 168 | 0.0 | 3.0 | 0.00 | 0.01 | 0.00 | 85 | 1018.5 |
| 20260502071510 | 53 | 168 | 0.0 | 0.0 | 0.00 | 0.01 | 0.00 | 84 | 1018.6 |
| 20260502070014 | 53 | 168 | 0.0 | 0.0 | 0.00 | 0.01 | 0.00 | 83 | 1018.8 |
| 20260502064515 | 53 | 168 | 0.0 | 0.0 | 0.00 | 0.01 | 0.00 | 81 | 1018.7 |
| 20260502063002 | 54 | 168 | 0.0 | 0.0 | 0.00 | 0.01 | 0.00 | 82 | 1018.7 |
| 20260502061559 | 54 | 168 | 0.0 | 0.0 | 0.00 | 0.01 | 0.00 | 80 | 1018.6 |
| 20260502060110 | 55 | 168 | 0.0 | 3.0 | 0.00 | 0.01 | 0.00 | 80 | 1018.6 |
| 20260502054556 | 55 | 168 | 2.0 | 4.0 | 0.00 | 0.01 | 0.00 | 81 | 1018.6 |
| 20260502053101 | 55 | 154 | 0.0 | 1.0 | 0.00 | 0.01 | 0.00 | 82 | 1018.8 |
| 20260502051600 | 55 | 154 | 0.0 | 0.0 | 0.00 | 0.01 | 0.00 | 81 | 1018.7 |
| 20260502050057 | 55 | 154 | 0.0 | 0.0 | 0.00 | 0.01 | 0.00 | 80 | 1018.7 |
| 20260502044549 | 56 | 154 | 0.0 | 0.0 | 0.00 | 0.01 | 0.01 | 78 | 1018.6 |
| 20260502043051 | 57 | 154 | 0.0 | 0.0 | 0.00 | 0.01 | 0.01 | 77 | 1018.7 |
| 20260502041548 | 57 | 154 | 0.0 | 0.0 | 0.00 | 0.01 | 0.01 | 77 | 1018.6 |
| 20260502040049 | 57 | 154 | 0.0 | 0.0 | 0.00 | 0.01 | 0.01 | 75 | 1018.4 |
| 20260502034545 | 58 | 154 | 0.0 | 0.0 | 0.00 | 0.01 | 0.01 | 73 | 1018.4 |
| 20260502033043 | 58 | 154 | 0.0 | 2.0 | 0.00 | 0.01 | 0.01 | 72 | 1018.3 |
| 20260502031543 | 59 | 154 | 0.0 | 2.0 | 0.00 | 0.01 | 0.01 | 71 | 1018.0 |
| 20260502030039 | 59 | 100 | 0.0 | 0.0 | 0.00 | 0.01 | 0.01 | 70 | 1017.8 |
| 20260502024539 | 59 | 100 | 0.0 | 1.0 | 0.00 | 0.01 | 0.01 | 71 | 1017.8 |
| 20260502023036 | 60 | 100 | 0.0 | 0.0 | 0.00 | 0.01 | 0.01 | 72 | 1017.5 |
| 20260502021535 | 60 | 100 | 0.0 | 0.0 | 0.00 | 0.01 | 0.01 | 71 | 1017.3 |
| 20260502020033 | 61 | 100 | 0.0 | 0.0 | 0.00 | 0.01 | 0.01 | 71 | 1017.2 |
| 20260502014533 | 61 | 100 | 0.0 | 2.0 | 0.00 | 0.01 | 0.01 | 69 | 1017.0 |
| 20260502013031 | 61 | 100 | 0.0 | 0.0 | 0.00 | 0.01 | 0.01 | 69 | 1016.6 |
| 20260502011550 | 61 | 100 | 0.0 | 0.0 | 0.00 | 0.01 | 0.01 | 68 | 1016.3 |
| 20260502010028 | 62 | 100 | 0.0 | 0.0 | 0.00 | 0.01 | 0.01 | 69 | 1016.0 |
| 20260502004547 | 62 | 100 | 0.0 | 0.0 | 0.00 | 0.01 | 0.01 | 70 | 1015.6 |
| 20260502003029 | 62 | 100 | 0.0 | 0.0 | 0.00 | 0.01 | 0.01 | 68 | 1015.3 |